Location: Recife
(8.0585°S, 34.8848°W)
Time: 20:25:23
(UTC-03:00)

A-11 Canister half - Pass Details

Date: 23 April 2026
Orbit: 1515 x 1684 km, 47.2° (Epoch: 16 May)

Event Time Altitude Azimuth Distance (km) Brightness Sun altitude
Rises 00:48:31 0° 244° (WSW) 4,735 - -67.3°
Reaches altitude 10° 00:52:18 10° 256° (WSW) 3,725 - -66.4°
Maximum altitude 00:59:35 26° 308° (NW) 2,658 - -64.6°
Drops below altitude 10° 01:06:48 10° 1° (N) 3,661 - -62.9°
Sets 01:10:32 0° 13° (NNE) 4,639 - -62.0°
